Weather History for KRAC - April, 2014

Change the Weather History Date:

Monday, April 7, 2014

  Actual Average (KENW) Record (KENW)
Temperature  
Mean Temperature 42 °F -  
Max Temperature 54 °F 51 °F - (-1)
Min Temperature 30 °F 32 °F - (-1)
Degree Days  
Heating Degree Days 24    
Moisture  
Dew Point 28 °F    
Average Humidity 56    
Maximum Humidity 82    
Minimum Humidity 40    
Precipitation  
Precipitation 0.00 in - - ()
Sea Level Pressure  
Sea Level Pressure 29.79 in    
Wind  
Wind Speed 4 mph (NNE)    
Max Wind Speed 10 mph    
Max Gust Speed -    
Visibility 10 miles    
Events      
Averages and records for this station are not official NWS values.
T = Trace of Precipitation, MM = Missing Value Source: NWS Daily Summary

Daily Weather History Graph

Daily Weather History Graph

Search for Another Location

Airport or City:

Trip Planner

Search our weather history database for the weather conditions in past years. The results will help you decide how hot, cold, wet, or windy it might be!

Date:

Astronomy

Apr. 07, 2014 Rise Set
Actual Time 6:23 AM CDT 7:24 PM CDT
Civil Twilight 5:54 AM CDT 7:53 PM CDT
Nautical Twilight 5:19 AM CDT 8:27 PM CDT
Astronomical Twilight 4:43 AM CDT 9:03 PM CDT
Moon 12:15 PM CDT (4/7) 2:05 AM CDT (4/7)
Length of Visible Light 13h 58m
Length of Day
13h 01m
First Quarter, 53% of the Moon is Illuminated
Apr 7
First Quarter
Apr 15
Full
Apr 22
Last Quarter
Apr 29
New
May 6
First Quarter

Hourly Weather History & Observations

Time (CDT) Temp. Windchill Dew Point Humidity Pressure Visibility Wind Dir Wind Speed Gust Speed Precip Events Conditions
12:53 AM 42.1 °F 37.1 °F 28.0 °F 58% 29.96 in 10.0 mi South 8.1 mph - N/A   Clear
1:53 AM 37.9 °F 34.4 °F 27.0 °F 65% 29.95 in 10.0 mi South 4.6 mph - N/A   Clear
2:53 AM 36.0 °F - 27.0 °F 70% 29.92 in 10.0 mi Calm Calm - N/A   Clear
3:53 AM 34.0 °F - 28.0 °F 79% 29.90 in 10.0 mi Calm Calm - N/A   Clear
4:53 AM 30.9 °F - 26.1 °F 82% 29.88 in 10.0 mi Calm Calm - N/A   Clear
5:53 AM 34.0 °F - 28.0 °F 79% 29.88 in 10.0 mi Calm Calm - N/A   Clear
6:53 AM 35.1 °F - 30.0 °F 82% 29.92 in 10.0 mi Calm Calm - N/A   Mostly Cloudy
7:53 AM 37.9 °F 35.5 °F 32.0 °F 79% 29.88 in 10.0 mi North 3.5 mph - N/A   Partly Cloudy
8:53 AM 44.1 °F - 32.0 °F 63% 29.86 in 10.0 mi Calm Calm - N/A   Scattered Clouds
9:53 AM 46.9 °F - 30.0 °F 52% 29.85 in 10.0 mi East 5.8 mph - N/A   Clear
10:53 AM 48.9 °F - 30.0 °F 48% 29.82 in 10.0 mi ESE 4.6 mph - N/A   Clear
11:53 AM 51.1 °F - 28.9 °F 43% 29.78 in 10.0 mi East 6.9 mph - N/A   Clear
12:53 PM 52.0 °F - 28.9 °F 41% 29.74 in 10.0 mi NNE 10.4 mph - N/A   Clear
1:53 PM 53.1 °F - 28.9 °F 40% 29.73 in 10.0 mi NE 10.4 mph - N/A   Clear
3:53 PM 51.1 °F - 28.0 °F 41% 29.70 in 10.0 mi NNE 8.1 mph - N/A   Clear
4:53 PM 50.0 °F - 28.0 °F 43% 29.68 in 10.0 mi North 9.2 mph - N/A   Mostly Cloudy
5:53 PM 48.9 °F - 27.0 °F 43% 29.67 in 10.0 mi NNE 5.8 mph - N/A   Mostly Cloudy
6:53 PM 46.9 °F - 27.0 °F 46% 29.66 in 10.0 mi NNW 5.8 mph - N/A   Overcast
7:53 PM 46.9 °F - 27.0 °F 46% 29.65 in 10.0 mi NW 4.6 mph - N/A   Mostly Cloudy
8:53 PM 48.0 °F - 26.1 °F 42% 29.66 in 10.0 mi NW 5.8 mph - N/A   Overcast
9:53 PM 46.9 °F - 27.0 °F 46% 29.66 in 10.0 mi Calm Calm - N/A   Overcast
10:53 PM 45.0 °F 41.8 °F 28.9 °F 53% 29.66 in 10.0 mi West 5.8 mph - N/A   Overcast
11:53 PM 43.0 °F - 28.9 °F 58% 29.65 in 10.0 mi Calm Calm - N/A   Mostly Cloudy